Location: Garbet
(42.8837°N, 1.2115°E)
Time: 04:44:29
(UTC+00:00)

Cosmos 1953 Rocket - Pass Details

Date: 14 March 2026
Orbit: 599 x 626 km, 82.5° (Epoch: 15 April)

Event Time Altitude Azimuth Distance (km) Brightness Sun altitude
Rises 19:12:36 0° 193° (SSW) 2,830 7.0 -14.0°
Reaches altitude 10° 19:14:48 10° 196° (SSW) 1,932 6.2 -14.4°
Maximum altitude 19:19:03 67° 279° (W) 651 3.9 -15.2°
Drops below altitude 10° 19:23:21 10° 3° (N) 1,952 6.2 -16.0°
Sets 19:25:35 0° 6° (N) 2,863 7.1 -16.4°
